{"data":{"norad_id":63928,"intl_designator":"2025-098C","name":"STARLINK-33997","alt_names":[],"object_type":"PAYLOAD","status":"ACTIVE","operator":null,"country":"US","launch_date":"2025-05-13","launch_site_code":"AFWTR","launch_vehicle":null,"mission":null,"orbit_class":"UNKNOWN","rcs_meters":null,"size_class":null,"mass_kg":null,"dimensions":null,"purposes":["comms"],"wikipedia_slug":null,"has_3d_model":false,"image_url":null,"decayed_at":null,"tle_current":{"epoch":"2026-05-25T02:29:31.413120Z","epoch_age_seconds":56301,"freshness":"FRESH","line1":"1 63928U 25098C   26145.10383580  .00002829  00000+0  24476-3 0  9994","line2":"2 63928  70.0007  81.9823 0002864 266.5777  93.5055 14.98338227 58013","mean_motion":14.98338227,"eccentricity":0.0002864,"inclination_deg":70.0007,"raan_deg":81.9823,"arg_perigee_deg":266.5777,"mean_anomaly_deg":93.5055,"bstar":0.00024476,"rev_number":5801,"period_min":96.106471426228,"perigee_km":570.03992178437,"apogee_km":574.02097769958,"semimajor_km":6950.167449742,"source":"CELESTRAK","updated_at":"2026-05-25T13:38:20.182653Z"}}}